Regional Weather Roundup
Issued by NWS Grand Forks, ND

Home | Current Version | Previous Version | Text Only | Print | Product List | Glossary Off
Versions: 1 2 3 4 5 6 7 8 9 10 11 12 13 14 15 16 17 18 19 20 21 22 23 24 25 26 27 28 29 30 31 32 33 34 35 36 37 38 39 40 41 42 43 44 45 46 47 48 49 50

000
ASUS43 KFGF 300731
RWRFGF
PRAIRIE TO PINES  WEATHER ROUNDUP
NATIONAL WEATHER SERVICE EASTERN NORTH DAKOTA/GRAND FORKS ND
200 AM CDT TUE SEP 30 2014

 **SATELLITE DATA USED TO AUGMENT SKY COVER AT AUTOMATED STATIONS**
 *****  WEATHER ACROSS EASTERN NORTH DAKOTA  *****

CITY           SKY/WX    TMP DP  RH WIND       PRES   REMARKS
GRAND FORKS    CLEAR     44  42  93 SE7       30.04F
GRAND FRKS AFB CLEAR     42  42  99 SE6       30.04F
GRAND FRKS NWS   N/A     43 N/A N/A SE9         N/A
DEVILS LAKE    PTCLDY    50  43  76 SE15      29.96F
FARGO          PTCLDY    46  43  89 SE6       30.02F
WAHPETON ARPT  SUNNY     45  41  87 SE10      30.03F
$$

 ***** WEATHER ACROSS CENTRAL AND WESTERN NORTH DAKOTA  *****

CITY           SKY/WX    TMP DP  RH WIND       PRES   REMARKS
BISMARCK       CLOUDY    55  49  80 E16       29.89F
MINOT          CLOUDY    51  46  83 SE15G24   29.89F
JAMESTOWN      CLOUDY    49  46  90 SE13      29.96F
MINOT AFB      CLOUDY    52  48  87 SE18      29.88F
GARRISON         N/A     53  49  86 SE13      29.87F
WILLISTON      LGT RAIN  53  49  86 SE7       29.81F
DICKINSON      CLOUDY    51  49  92 SE17      29.81F
HETTINGER      LGT RAIN  51  49  92 E14       29.81F
$$

 *****  OTHER AIRPORT OBSERVATIONS IN OUR AREA  *****

CITY           SKY/WX    TMP DP  RH WIND       PRES   REMARKS
WALHALLA       PTSUNNY   41  41 100 E3        30.03F
GRAFTON AIRPOR FAIR      43  43 100 SE8       30.04F
VALLEY CITY AR PTSUNNY   46  46 100 SE10      30.00S
CANDO          PTSUNNY   45  45 100 SE9       29.98S
CAVALIER APRT  FAIR      43  41  93 SE3       30.04F
GWINNER        CLOUDY    50  48  93 SE13      30.00S
ROLLA          CLOUDY    45  45 100 SE8       29.98F
 ***** THE ABOVE OBSERVATIONS ARE NON NWS ARE NOT QUALITY
       CONTROLLED AND MAY MIS-REPORT RAIN FOR SNOW...
$$

  *****  WEATHER ACROSS NORTHERN MINNESOTA  *****

CITY           SKY/WX    TMP DP  RH WIND       PRES   REMARKS
FLAG ISLAND    CLOUDY    46  45  93 SE12      30.10F
WARROAD        CLOUDY    43  37  81 SE9       30.11F
ROSEAU         CLEAR     39  36  87 E6        30.10S
HALLOCK        PTCLDY    46  43  87 SE8       30.06S
THF RVR FALLS  CLEAR     43  39  87 E8        30.07F
BAUDETTE       CLOUDY    42  40  92 SE8       30.12F
WASKISH        CLOUDY    43  41  93 CALM      30.11F
CROOKSTON      CLEAR     45  43  93 E6        30.06F
STEPHEN NDAWN    N/A     43  43 100 SE6         N/A
GREENBUSH NDAW   N/A     43  43 100 SE5         N/A
$$
  *****  WEATHER ACROSS CENTRAL AND WEST MINNESOTA  *****

CITY           SKY/WX    TMP DP  RH WIND       PRES   REMARKS
FOSSTON        CLEAR     41  39  93 SE6       30.08S
BEMIDJI        MOCLDY    45  42  88 SE8       30.09S
PARK RAPIDS    CLOUDY    43  41  93 SE12      30.09F
ELBOW LAKE     FAIR      43  41  91 E14       30.04F
WADENA         CLOUDY    43  39  87 E9        30.08F
DETROIT LAKES  CLOUDY    45  41  87 SE16      30.06F
MOORHEAD       NOT AVBL
FERGUS FALLS   PTCLDY    45  39  81 SE12      30.05F
MORRIS MN      CLEAR     43  41  93 E9        30.04F
STAPLES        CLOUDY    43  39  87 E7        30.11R
$$
  *****  WEATHER ELSEWHERE ACROSS MINNESOTA  *****

CITY           SKY/WX    TMP DP  RH WIND       PRES   REMARKS
DULUTH         CLOUDY    44  39  82 E12       30.15S
INTRNTL FALLS  CLOUDY    42  39  89 SE5       30.15S
ELY            CLOUDY    41  37  87 SE5       30.15F
CLOQUET        CLOUDY    43  39  87 E6        30.16R
WHEATON        CLEAR     43  39  87 E10       30.05S
BRAINERD       CLOUDY    41  38  89 E9        30.13S
HIBBING        CLOUDY    43  38  82 S7        30.16S
ALEXANDRIA     CLOUDY    42  40  92 E14G21    30.09S
SAINT CLOUD    CLOUDY    45  40  82 E8        30.11S
MINNEAPOLIS    PTCLDY    43  39  86 E9        30.11S
$$

  *****  WEATHER ACROSS SOUTH DAKOTA  *****

CITY           SKY/WX    TMP DP  RH WIND       PRES   REMARKS
SIOUX FALLS    MOCLDY    54  50  86 E14       29.97F
BROOKINGS      NOT AVBL
WATERTOWN      MOCLDY    50  45  83 SE12G21   29.98F
HURON          MOCLDY    54  49  83 SE17      29.91F
SISSETON         N/A     48  46  93 SE10      30.00F
ABERDEEN       CLEAR     51  47  86 E8        29.94F
MITCHELL       MOCLDY    58  53  84 SE17G29   29.91F
PIERRE         MOCLDY    59  56  89 SE22G31   29.76F
MOBRIDGE       MOCLDY    57  51  80 SE13G21   29.82S
RAPID CITY     LGT RAIN  53  52  96 N13       29.68F
$$

  *****  SOME WEATHER IN NEARBY STATES *****

CITY           SKY/WX    TMP DP  RH WIND       PRES   REMARKS
GLASGOW MT     CLOUDY    50  47  89 SE13      29.72F
GREAT FALLS MT CLOUDY    56  44  64 SW12      29.69R
CHEYENNE WY    CLOUDY    46  42  86 W9        29.83F
SCOTTSBLUFF NE HVY RAIN  51  50  96 W28G39    29.65R FOG
OMAHA NE       MOCLDY    66  60  81 E7        29.95F
DES MOINES IA  PTCLDY    62  57  83 E7        30.00S
DAVENPORT IA   NOT AVBL
CHICAGO IL     CLOUDY    53  47  79 NE14      30.02S
EAU CLAIRE WI  CLOUDY    43  37  79 NE10      30.13R
LA CROSSE WI   MOCLDY    47  42  83 N3        30.11R
$$

  *****  SOME NATIONAL WEATHER *****

CITY           SKY/WX    TMP DP  RH WIND       PRES   REMARKS
LA GUARDIA NY  CLOUDY    71  57  61 S5        29.92S
RALEIGH NC     FOG       63  61  94 CALM      29.94F VSB 1/2
ATLANTA GA     DRIZZLE   67  65  93 NE9       29.95S FOG
NEW ORLEANS LA CLEAR     75  72  90 CALM      29.87R
OKLAHOMA CITY  PTCLDY    61  57  87 S6        29.92F
ALBUQUERQUE NM CLEAR     57  34  41 W9        30.05S
SALT LAKE CITY CLOUDY    52  47  83 SE8       29.99F
LOS ANGELES CA CLEAR     67  63  87 SE5       29.88S
BOISE ID       CLOUDY    53  51  93 CALM      29.93F
SEATTLE WA     MOCLDY    57  51  80 S6        29.99R
$$

*** WEATHER ACROSS MANITOBA...SASKATCHEWAN AND ONTARIO ***
                ***ONTARIO***

CITY           SKY/WX    TMP DP  RH WIND       PRES   REMARKS
GERALDTON      CLEAR     28  28 100 CALM      30.19S
THUNDER BAY    CLOUDY    41  37  87 W2        30.21S
SIOUX LOOKOUT  CLOUDY    37  37 100 S6        30.17F
TORONTO        MOCLDY    61  57  88 NW5       29.86R
BIG TROUT LK   CLEAR     39  36  87 W13G18    30.09S
PICKLE LAKE    NOT AVBL
DRYDEN         CLOUDY    39  37  93 S8        30.15F
KENORA         CLOUDY    41  39  93 S10       30.13S
$$
                *** MANITOBA***

CITY           SKY/WX    TMP DP  RH WIND       PRES   REMARKS
BRANDON        PTCLDY    46  43  87 E8        29.98F
DAUPHIN        CLEAR     37  36  93 VRB2      29.97F
ISLAND LAKE    CLOUDY    45  37  76 SW14      30.05S
PILOT MOUND      N/A     43  41  93 E9          N/A
THE PAS        CLEAR     39  37  93 S7        29.89S
THOMPSON       CLEAR     32  32 100 CALM      29.93R
WINNIPEG       PTCLDY    46  43  87 SE12      30.07S
LYNN LAKE      CLOUDY    41  39  93 SE6       29.81S
CHURCHILL      CLOUDY    41  39  93 E9        29.94F FOG
GILLAM         CLEAR     36  36 100 SW5       29.96S
$$
                ***SASKATCHEWAN***

CITY           SKY/WX    TMP DP  RH WIND       PRES   REMARKS
ESTEVAN        CLOUDY    50  46  87 SE10      29.85F
KINDERSLEY     MOCLDY    48  45  87 SE16      29.61F
LLOYDMINSTER   CLOUDY    48  45  87 SE12      29.59F
PRINCE ALBERT  CLOUDY    52  45  76 S12G20    29.74F
REGINA         CLOUDY    48  45  87 SE15G21   29.81F
YORKTON        NOT AVBL
N. BATTLEFORD  CLOUDY    52  45  76 SE12      29.65F
LA RONGE       MOCLDY    50  41  71 SE7       29.73F
SASKATOON      CLOUDY    52  45  76 S15G23    29.73F
SWIFT CURRENT  CLOUDY    48  46  93 S17G25    29.66F
$$
NOTE: THESE ARE AUTOMATED STATIONS WITH LIMITED QUALITY CONTROL
      "FAIR" INDICATES FEW OR NO CLOUDS BELOW 12,000 FEET WITH NO
      SIGNIFICANT WEATHER AND/OR OBSTRUCTIONS TO VISIBILITY.
      SKY/WX - SKY CONDITION AND SIGNIFICANT WEATHER.
      TMP - AIR TEMPERATURE.    DP   - DEWPOINT TEMPERATURE.
      RH  - RELATIVE HUMIDITY.  PRES - PRESSURE.
      HX  - HEAT INDEX.         WCI  - WIND CHILL INDEX.
$



USA.gov is the U.S. government's official web portal to all federal, state and local government web resources and services.